Alvadore, OR

12:58 PM PST on January 24, 2017 (GMT -0800)
Mahlon Sweet

Weather History for KEUG - September, 2012

Change the Weather History Date:

Sunday, September 30, 2012

  Actual Average Record
Temperature  
Mean Temperature 61 °F 58 °F  
Max Temperature 77 °F 72 °F 88 °F (1975)
Min Temperature 44 °F 44 °F 32 °F (1983)
Degree Days  
Heating Degree Days 4 7  
Month to date heating degree days 78 120  
Since 1 July heating degree days 119 188  
Cooling Degree Days 0 0  
Month to date cooling degree days 30 30  
Year to date cooling degree days 230 238  
Growing Degree Days 10 (Base 50)    
Moisture  
Dew Point 42 °F    
Average Humidity 56    
Maximum Humidity 86    
Minimum Humidity 25    
Precipitation  
Precipitation 0.00 in 0.06 in 1.18 in (2007)
Month to date precipitation 0.02 1.29  
Year to date precipitation 30.86 27.30  
Snow  
Snow 0.00 in - - ()
Month to date snowfall 0.0  
Since 1 July snowfall 0.0  
Since 1 September snowfall 0.0  
Snow Depth 0.00 in    
Sea Level Pressure  
Sea Level Pressure 30.27 in    
Wind  
Wind Speed 11 mph (NNE)    
Max Wind Speed 21 mph    
Max Gust Speed 26 mph    
Visibility 10 miles    
Events      
T = Trace of Precipitation, MM = Missing Value Source: NWS Daily Summary

Daily Weather History Graph

Daily Weather History Graph

Search for Another Location

Airport or City:

Trip Planner

Search our weather history database for the weather conditions in past years. The results will help you decide how hot, cold, wet, or windy it might be!

Date:

Astronomy

Sep. 30, 2012 Rise Set
Actual Time 7:10 AM PDT 6:54 PM PDT
Civil Twilight 6:41 AM PDT 7:23 PM PDT
Nautical Twilight 6:07 AM PDT 7:56 PM PDT
Astronomical Twilight 5:33 AM PDT 8:30 PM PDT
Moon 6:57 PM PDT (9/30) 7:49 AM PDT (9/30)
Length of Visible Light 12h 41m
Length of Day
11h 44m
Full, 100% of the Moon is Illuminated
Sep 30
Full
Oct 8
Last Quarter
Oct 15
New
Oct 21
First Quarter
Oct 29
Full

Hourly Weather History & Observations

Time (PDT) Temp. Windchill Dew Point Humidity Pressure Visibility Wind Dir Wind Speed Gust Speed Precip Events Conditions
12:54 AM 54.0 °F - 45.0 °F 72% 30.23 in 10.0 mi North 9.2 mph - N/A   Clear
1:54 AM 52.0 °F - 43.0 °F 71% 30.25 in 10.0 mi North 6.9 mph - N/A   Clear
2:54 AM 51.1 °F - 43.0 °F 74% 30.26 in 10.0 mi North 6.9 mph - N/A   Clear
3:54 AM 52.0 °F - 43.0 °F 71% 30.27 in 10.0 mi North 11.5 mph - N/A   Clear
4:54 AM 48.9 °F - 42.1 °F 77% 30.28 in 10.0 mi North 5.8 mph - N/A   Clear
5:54 AM 48.0 °F - 42.1 °F 80% 30.29 in 10.0 mi NE 4.6 mph - N/A   Clear
6:54 AM 46.0 °F 44.8 °F 42.1 °F 86% 30.30 in 10.0 mi East 3.5 mph - N/A   Clear
7:54 AM 46.9 °F - 42.1 °F 83% 30.31 in 10.0 mi Calm Calm - N/A   Clear
8:54 AM 54.0 °F - 45.0 °F 72% 30.33 in 10.0 mi North 6.9 mph - N/A   Clear
9:54 AM 60.1 °F - 45.0 °F 57% 30.35 in 10.0 mi North 17.3 mph - N/A   Clear
10:54 AM 63.0 °F - 45.0 °F 52% 30.34 in 10.0 mi North 16.1 mph - N/A   Clear
11:54 AM 68.0 °F - 45.0 °F 43% 30.33 in 10.0 mi North 13.8 mph - N/A   Clear
12:54 PM 71.1 °F - 44.1 °F 38% 30.31 in 10.0 mi North 13.8 mph - N/A   Clear
1:54 PM 73.9 °F - 43.0 °F 33% 30.29 in 10.0 mi NNE 15.0 mph 24.2 mph N/A   Clear
2:54 PM 75.0 °F - 42.1 °F 31% 30.26 in 10.0 mi NNE 13.8 mph - N/A   Partly Cloudy
3:54 PM 75.9 °F - 39.9 °F 27% 30.25 in 9.0 mi North 19.6 mph - N/A   Partly Cloudy
4:54 PM 75.9 °F - 37.9 °F 25% 30.24 in 10.0 mi NNE 19.6 mph - N/A   Clear
5:54 PM 73.4 °F - 37.4 °F 27% 30.23 in 10.0 mi NNE 17.3 mph - N/A   Partly Cloudy
6:54 PM 69.1 °F - 39.9 °F 35% 30.23 in 10.0 mi NNE 9.2 mph - N/A   Partly Cloudy
7:54 PM 64.9 °F - 42.1 °F 43% 30.24 in 10.0 mi NNE 8.1 mph - N/A   Partly Cloudy
8:54 PM 64.0 °F - 42.1 °F 45% 30.24 in 10.0 mi North 10.4 mph - N/A   Clear
9:54 PM 57.9 °F - 41.0 °F 53% 30.25 in 10.0 mi North 6.9 mph - N/A   Clear
10:54 PM 57.2 °F - 42.8 °F 59% 30.24 in 10.0 mi NNE 12.7 mph - N/A   Clear
11:54 PM 57.9 °F - 42.1 °F 56% 30.23 in 10.0 mi North 10.4 mph - N/A   Clear